GFSCGP_850_spd_015.txt.gz
Wind_Speed
2 1 6 9 6 3 2 4 10 16 12 9 18 22 20 32 18 24 33 38 40 39 39 40 38 40 43 46 49 50 49 48 46 45 44 43 40 39 37 35 31 27 24 20
3 8 6 3 4 6 7 9 14 12 11 7 12 26 20 19 31 31 32 35 41 47 46 43 43 39 42 46 50 52 53 52 51 49 48 46 42 40 38 35 32 29 25 22
5 1 8 4 3 5 4 7 8 13 12 8 11 19 10 9 21 28 28 38 39 37 38 38 41 42 41 45 47 53 54 56 56 54 52 49 44 41 39 39 36 32 27 23
5 4 2 3 7 7 6 12 15 11 5 6 5 16 7 11 16 5 18 27 31 31 34 35 36 37 37 41 46 50 54 58 58 58 57 55 51 48 46 42 37 31 27 25
6 2 3 4 6 5 7 1 4 3 5 6 6 6 18 5 9 12 14 23 29 24 28 32 32 33 34 35 39 44 53 59 59 60 60 58 54 49 44 39 35 31 28 26
7 7 5 5 2 6 2 2 1 2 2 8 10 10 27 6 3 6 9 16 24 22 28 32 31 29 33 33 34 38 46 56 61 62 62 61 57 52 45 40 36 33 31 28
5 4 3 2 1 4 2 3 4 3 3 7 3 9 21 7 18 7 10 27 31 37 41 43 42 39 33 36 39 39 42 51 58 64 64 62 59 52 46 42 38 35 33 31
4 5 1 2 3 5 6 4 2 7 8 14 6 12 12 3 9 16 17 22 27 34 41 46 44 43 44 31 33 39 42 45 50 59 64 63 59 53 47 43 39 34 31 27
6 5 6 19 6 5 3 1 4 8 18 13 13 18 14 17 9 21 25 32 36 32 35 37 49 49 46 41 29 30 34 40 44 49 58 62 59 55 50 43 38 33 28 26
2 12 9 3 8 7 5 5 6 3 16 22 18 22 16 16 17 22 28 39 39 35 36 39 47 51 43 42 32 24 28 34 41 43 49 58 59 55 48 42 40 34 29 29
3 4 8 13 4 9 11 10 10 10 10 15 20 11 2 19 18 24 36 42 37 34 34 37 38 44 42 37 33 25 24 29 36 41 45 52 58 55 49 44 40 34 31 30
5 5 11 20 19 18 11 4 7 5 12 16 13 19 22 19 31 45 41 41 45 42 41 36 33 33 42 35 34 29 24 25 31 34 41 47 52 53 50 46 40 35 33 31
4 3 10 7 2 2 9 17 17 15 9 17 15 14 23 38 32 33 34 42 38 44 51 37 30 26 35 37 33 31 26 25 27 32 36 42 49 52 51 46 41 37 35 32
13 5 11 12 17 15 18 20 19 18 12 17 19 29 27 30 28 24 26 29 31 32 33 39 42 38 36 36 34 32 29 24 25 29 36 39 45 50 50 45 42 39 36 33
2 6 14 16 18 19 22 22 25 21 21 18 25 24 26 20 21 30 25 28 29 31 33 35 39 37 28 30 33 37 32 27 23 25 33 38 40 46 48 46 43 40 37 34
4 14 14 19 19 20 19 23 22 20 20 17 18 19 9 18 30 27 30 29 31 34 32 34 40 45 39 31 35 37 39 31 25 25 29 34 40 43 49 48 45 41 37 34
9 8 8 13 15 12 11 15 10 20 20 17 15 18 10 19 26 30 31 32 29 31 35 40 43 42 41 38 36 40 41 38 30 29 28 33 40 44 49 48 45 43 39 35
12 9 5 6 4 6 7 16 19 16 16 15 17 7 16 22 39 32 30 28 24 36 42 44 46 44 43 40 46 44 39 40 35 32 33 34 39 45 50 49 47 44 40 37
20 4 3 3 4 13 16 6 8 14 23 13 6 18 32 34 34 30 19 24 37 41 41 43 44 42 39 41 42 40 42 40 38 36 37 37 40 45 51 52 50 46 42 40
4 5 3 4 9 11 19 15 14 6 17 2 27 26 26 29 14 19 35 39 41 39 41 41 41 40 32 39 43 44 42 40 41 38 39 37 38 44 51 52 50 46 40 36
3 3 7 10 8 10 8 8 9 8 10 32 34 30 31 17 22 45 39 40 42 40 40 42 39 39 40 40 45 47 46 42 37 36 35 37 38 45 49 51 48 43 41 36
6 4 3 3 4 9 6 9 7 16 38 33 35 33 31 36 39 42 39 35 39 39 40 42 40 37 40 39 40 46 47 36 28 29 33 37 37 43 47 50 47 42 40 36
5 7 5 7 8 12 29 30 34 29 30 35 33 38 33 37 39 38 40 39 38 41 40 38 39 36 41 39 36 47 37 24 17 23 31 34 34 41 46 49 46 44 40 36
4 8 6 6 21 20 28 34 36 28 32 36 37 34 36 32 39 39 38 37 38 40 38 39 38 35 36 37 38 37 25 18 15 23 30 34 37 42 43 45 43 42 38 33
17 13 13 17 24 27 17 15 29 32 31 34 38 34 35 34 39 37 38 35 37 40 39 36 35 34 31 30 34 35 22 14 19 29 31 36 33 39 43 41 39 35 30 25
12 9 5 7 22 19 24 26 25 30 36 34 35 42 38 28 35 36 38 34 38 39 37 34 32 31 20 26 32 25 16 10 17 21 30 36 39 41 42 40 34 25 20 19

GFSCGP_850_spd_018.txt.gz
Wind_Speed
1 5 8 10 8 11 12 13 18 20 21 22 21 23 24 32 32 30 33 33 33 35 34 30 24 25 28 30 34 36 38 40 39 43 44 45 44 42 41 39 36 33 30 28
5 8 7 2 4 8 11 15 18 17 13 14 19 29 28 27 30 31 26 26 28 27 23 22 23 23 27 30 33 35 38 39 42 52 50 48 46 44 42 41 39 36 33 31
8 3 1 4 6 8 11 13 16 19 20 16 18 23 10 9 9 12 13 18 23 22 20 21 20 18 20 24 30 36 39 43 46 53 53 51 36 39 45 45 42 39 37 34
7 2 4 5 10 9 13 5 11 14 11 10 12 16 16 6 2 3 10 16 20 21 18 19 22 21 18 21 24 29 35 39 42 48 54 57 58 55 53 48 44 42 39 36
3 7 8 11 8 3 11 7 11 14 16 16 12 8 3 11 9 11 20 20 20 21 23 27 26 26 24 22 21 26 28 35 41 45 56 62 62 60 50 47 45 43 40 36
14 10 6 6 8 7 12 10 14 9 9 7 8 14 12 7 3 15 16 21 23 26 25 27 29 31 29 28 27 22 26 31 38 49 54 63 65 58 42 46 47 44 41 38
11 4 0 6 3 1 10 11 7 5 5 9 3 9 18 20 12 15 17 25 36 38 34 34 33 35 35 36 33 29 23 31 33 41 48 55 63 60 48 51 52 46 43 41
6 1 4 5 10 7 10 5 6 9 11 18 18 14 10 12 10 16 21 24 32 40 37 38 38 38 37 35 33 33 26 26 28 35 41 43 44 49 50 50 52 48 45 42
7 3 10 14 8 4 4 6 10 14 21 18 15 21 23 17 13 35 38 40 46 41 38 41 40 39 37 33 33 32 29 22 24 29 34 37 40 45 51 47 50 48 45 41
3 10 5 5 11 7 8 11 9 7 8 13 14 23 21 20 28 29 35 48 50 46 47 40 35 34 34 30 30 31 28 23 20 22 29 33 35 38 40 40 44 50 45 41
8 5 5 13 6 15 14 7 5 6 9 12 18 14 19 29 32 32 37 41 42 43 42 38 36 33 30 30 30 30 27 24 19 20 24 28 30 34 37 38 37 47 46 42
5 6 12 20 16 5 3 8 9 9 19 18 19 26 26 26 33 36 37 34 38 39 39 37 34 31 31 32 31 29 28 26 21 18 21 24 27 31 35 36 35 42 45 40
7 2 8 3 6 9 4 17 16 18 14 22 19 18 22 35 35 35 37 38 33 35 40 38 33 29 29 31 30 29 28 26 23 19 20 22 26 29 33 35 35 36 42 41
9 9 13 12 17 17 23 21 21 19 14 22 19 27 25 27 26 32 33 33 34 36 38 38 32 30 32 30 28 26 31 28 25 20 20 21 24 27 30 33 34 35 40 41
5 8 13 17 22 23 25 22 24 23 23 21 25 26 24 24 23 31 29 36 38 36 36 33 38 40 36 33 27 24 29 31 26 23 19 20 22 25 27 31 35 36 39 40
8 10 13 19 23 24 23 22 25 24 21 25 24 25 22 29 28 30 32 32 37 35 31 34 43 41 38 37 29 26 27 33 29 24 22 21 21 24 27 31 35 37 40 38
13 7 8 16 16 17 14 16 13 16 21 21 19 22 23 18 27 35 34 34 31 30 37 41 39 39 37 36 35 29 30 30 32 29 24 21 22 25 28 30 34 40 45 39
11 12 7 9 13 13 8 19 23 19 22 18 19 18 16 24 33 42 35 28 29 36 39 41 39 38 38 35 34 31 29 31 37 32 26 21 24 25 28 31 36 37 40 42
17 10 5 6 13 19 18 14 13 15 25 15 18 12 28 33 34 43 24 30 36 39 39 39 37 36 38 36 33 34 36 36 40 40 36 27 24 26 30 34 39 39 36 37
7 12 10 12 16 16 18 22 17 5 16 6 20 27 30 32 14 20 41 40 38 35 36 37 37 37 37 36 35 32 35 36 37 36 39 28 24 34 40 36 41 44 42 39
7 7 13 13 16 13 15 10 5 11 14 32 31 31 28 19 25 40 39 41 38 38 39 38 37 36 37 38 35 36 36 42 39 37 38 25 31 40 36 31 37 43 43 39
8 7 11 11 9 11 5 6 13 22 39 33 34 30 30 35 37 39 38 38 38 38 39 39 38 36 37 36 37 34 38 44 43 41 33 25 29 37 25 29 37 40 44 45
6 9 10 9 11 29 38 35 35 33 30 28 31 32 30 34 38 41 41 39 37 37 37 38 36 37 35 33 35 44 39 35 41 33 24 16 24 28 29 34 38 40 45 47
15 17 12 15 19 30 31 39 28 19 23 28 28 32 34 36 41 42 41 39 38 37 37 36 36 36 37 34 36 40 34 32 27 23 13 21 26 25 26 33 36 40 45 43
20 22 18 22 29 29 22 20 26 27 27 28 31 32 35 36 41 38 40 40 38 37 37 34 34 36 34 32 37 30 29 25 18 13 15 17 15 23 27 32 37 38 41 45
20 12 10 14 26 20 21 22 24 27 31 34 36 43 41 37 39 39 40 36 36 38 37 38 35 33 34 30 34 29 25 21 13 9 14 20 23 25 30 32 30 33 40 36

GFSCGP_850_spd_021.txt.gz
Wind_Speed
1 6 9 12 12 14 14 15 19 19 18 18 18 20 25 31 29 27 27 25 21 18 16 15 18 20 21 20 25 27 30 33 34 36 38 38 39 37 35 34 32 35 36 34
7 10 7 6 6 8 12 16 19 18 13 19 20 25 28 26 21 9 10 9 10 14 15 21 21 20 17 12 18 24 28 31 35 38 41 41 38 39 38 37 38 38 38 36
9 11 2 6 8 12 14 16 18 18 20 21 19 17 9 12 12 8 24 27 27 24 22 24 24 24 22 19 17 18 23 28 33 35 37 37 32 33 33 39 43 43 40 37
9 3 3 9 13 12 15 6 12 17 15 10 17 10 13 7 10 20 22 25 25 26 23 23 24 24 22 22 22 22 17 23 30 35 39 40 40 41 47 49 49 46 42 39
2 7 11 12 10 8 12 10 15 17 17 18 16 8 3 9 10 14 18 22 23 27 28 27 27 27 25 25 26 24 24 20 24 32 40 44 44 41 36 40 45 46 44 41
13 12 5 9 12 8 11 13 19 20 11 8 12 11 6 5 10 13 13 17 21 29 34 30 29 31 31 31 30 29 27 26 22 28 35 43 48 46 38 36 38 44 46 44
12 1 5 7 11 5 7 15 7 6 6 7 6 9 12 9 17 15 17 23 29 35 35 35 37 39 35 33 35 32 30 31 27 23 32 38 47 47 45 39 37 41 47 48
6 3 2 9 7 8 15 8 6 8 9 16 22 11 8 7 18 15 25 28 32 33 37 42 40 38 37 34 32 30 30 29 29 26 25 32 40 46 47 44 40 41 45 50
6 4 4 12 6 7 6 7 9 11 19 17 11 15 17 6 22 36 40 39 37 36 37 38 36 35 34 33 32 31 32 28 27 27 23 26 32 40 43 44 42 42 39 43
4 9 8 2 7 11 8 6 6 6 7 11 12 20 17 17 28 30 34 42 43 41 45 43 38 36 34 31 31 31 31 30 26 25 23 23 27 34 37 40 42 43 38 39
8 7 4 10 11 12 13 13 8 9 9 9 16 13 13 29 22 28 33 37 38 32 35 39 39 38 35 33 31 32 31 31 27 23 24 22 22 27 31 36 42 40 38 38
4 6 9 17 16 9 8 9 1 4 11 15 16 25 23 21 33 32 34 36 33 33 35 39 41 40 36 32 31 32 32 30 28 24 25 23 20 23 27 32 37 39 38 37
7 2 7 5 5 5 4 8 9 16 15 23 17 17 23 31 29 35 35 34 32 34 37 40 41 38 34 35 38 35 32 30 29 27 24 25 21 21 24 27 33 36 38 37
7 9 12 10 15 17 21 22 21 20 13 21 19 29 26 25 25 31 31 33 34 35 34 39 39 35 35 39 35 34 32 32 34 29 25 25 22 21 21 25 29 35 37 38
4 9 13 16 18 20 23 23 23 24 24 23 26 28 26 24 22 28 33 32 33 36 38 35 35 40 39 37 34 30 30 31 32 34 29 25 24 22 21 24 28 32 36 38
6 9 14 18 19 20 24 23 25 24 25 26 26 27 24 29 31 30 28 34 38 36 34 33 39 43 41 37 35 33 32 31 28 31 32 32 29 22 23 24 26 31 34 37
11 6 8 10 10 19 18 12 12 18 22 21 24 25 24 22 25 28 32 37 38 36 33 39 40 40 40 38 36 34 34 33 31 30 30 35 28 24 25 25 27 31 33 37
11 11 9 13 18 7 2 14 23 21 19 20 24 21 24 19 26 40 35 34 31 37 38 39 38 41 41 39 38 35 33 34 32 30 31 33 31 26 25 24 28 29 32 37
17 12 8 5 12 21 21 15 21 23 22 23 21 15 29 33 32 40 29 30 33 36 39 38 40 43 45 41 37 36 35 37 33 31 31 32 36 31 26 25 29 31 32 36
8 11 10 15 18 15 15 26 22 18 16 12 17 24 31 32 15 16 37 39 41 40 39 40 41 43 42 40 38 37 36 37 35 31 40 40 37 32 31 28 30 32 33 36
8 9 13 13 17 15 19 14 11 11 13 35 39 35 34 20 25 40 40 41 42 43 43 42 41 40 41 39 37 38 37 34 33 40 37 42 40 33 32 30 32 32 33 36
7 8 11 12 14 17 15 20 24 25 34 34 34 34 32 33 36 37 39 40 41 42 43 41 40 42 40 38 37 39 40 33 33 38 41 40 38 32 30 33 31 31 34 35
8 8 11 12 14 31 39 36 38 32 34 30 30 33 32 33 34 37 41 43 44 43 43 41 39 41 42 37 35 39 40 37 35 39 43 40 33 28 26 33 34 33 35 37
14 22 15 18 24 29 36 35 32 26 33 34 30 33 34 35 39 42 44 46 43 44 42 40 39 40 43 40 39 37 38 37 41 42 38 36 25 17 22 29 32 34 37 39
20 23 16 20 27 30 31 30 32 36 32 33 33 34 39 41 41 42 46 46 45 44 41 38 38 41 43 42 40 38 37 39 44 38 31 29 17 16 21 25 36 32 36 39
19 16 12 14 29 27 31 32 31 32 35 35 40 44 45 45 46 44 46 44 43 42 41 41 41 39 43 41 41 38 37 36 38 29 23 21 18 17 20 28 27 26 32 35

GFSCGP_850_spd_024.txt.gz
Wind_Speed
4 3 6 9 7 8 8 11 13 13 13 12 9 16 20 28 23 19 15 27 33 31 32 36 34 29 21 17 13 13 7 15 22 31 33 36 35 35 37 38 37 38 38 37
5 7 5 6 5 5 8 13 14 12 10 13 11 18 22 23 8 32 31 33 33 35 35 36 37 35 36 32 25 16 12 10 11 20 36 40 41 40 39 39 38 39 42 40
5 9 3 4 6 11 11 12 10 13 15 14 10 8 2 16 31 33 32 30 33 34 33 33 34 36 36 36 33 29 23 20 19 16 20 36 36 36 38 38 43 44 43 44
8 5 2 7 10 10 9 9 11 12 11 4 10 6 9 10 17 18 21 24 27 30 30 30 33 36 35 33 32 33 31 30 26 25 22 21 40 44 44 45 46 45 46 47
5 8 6 7 8 10 6 9 13 15 13 11 10 4 6 17 14 12 16 24 26 24 27 32 34 32 31 31 31 33 32 29 33 32 28 32 24 45 46 43 42 44 47 49
12 15 4 2 9 8 9 11 17 17 8 5 9 10 4 4 13 10 16 22 26 25 23 26 28 30 31 30 30 31 26 28 29 31 33 30 33 29 44 44 41 44 45 47
11 1 6 8 9 2 9 11 4 2 2 5 14 6 4 16 15 18 16 24 29 30 27 28 31 33 33 32 33 31 28 30 29 30 31 33 30 31 34 49 46 45 45 47
6 2 4 5 3 6 12 5 4 5 4 8 19 4 6 17 24 21 23 23 22 24 22 25 25 29 32 35 35 35 32 32 30 33 32 32 31 30 34 38 48 47 47 47
6 2 6 8 4 4 8 4 4 5 9 10 6 6 19 15 17 22 28 26 26 27 23 26 27 29 29 34 33 34 32 31 33 34 35 31 33 32 30 34 43 47 43 44
4 7 8 6 3 8 5 3 2 3 5 5 4 7 4 23 21 24 25 25 31 33 34 36 42 38 38 39 34 28 29 34 37 35 35 36 34 36 33 31 35 45 46 40
5 3 2 12 3 8 5 7 7 5 6 4 5 6 7 16 18 23 30 29 28 20 24 29 31 30 34 37 34 28 32 35 34 33 32 32 33 36 34 30 28 37 41 43
6 4 5 8 9 7 4 7 8 1 5 4 3 17 19 13 27 27 28 27 21 24 25 27 30 34 33 28 34 38 37 36 35 29 33 41 33 32 32 30 29 28 34 38
7 2 5 4 4 4 2 3 3 8 4 15 11 12 15 29 29 32 31 20 23 24 28 33 34 33 25 31 37 38 37 34 33 34 34 33 28 30 28 31 27 29 31 36
2 4 6 5 10 14 15 13 14 14 10 16 17 26 21 22 25 28 22 24 24 26 31 36 33 30 30 34 34 36 35 34 37 36 37 31 29 30 33 29 27 27 30 32
3 6 9 11 15 16 18 19 18 17 18 18 24 25 24 18 19 24 26 24 24 31 37 35 29 33 37 35 31 33 36 38 37 38 36 36 35 33 31 31 26 28 31 27
2 4 9 12 16 16 18 18 19 19 20 21 20 22 17 22 28 26 23 24 26 31 30 33 34 37 38 36 33 35 39 38 39 37 40 39 36 29 32 35 25 23 29 32
5 3 5 4 7 17 14 4 6 13 16 13 16 18 18 14 20 25 28 29 31 27 32 31 35 37 36 39 39 38 39 41 36 39 41 42 37 31 28 33 35 25 24 29
7 6 3 7 12 4 4 14 14 17 18 16 18 16 14 19 26 31 35 29 28 27 30 36 37 38 42 44 39 40 38 37 35 37 42 39 33 28 35 35 35 29 27 27
15 6 4 3 5 17 19 5 14 18 16 11 9 12 24 30 29 30 31 26 31 36 36 34 38 42 42 43 41 38 41 36 36 38 40 33 37 43 40 32 33 33 31 24
8 10 7 5 5 6 3 18 18 10 15 9 24 27 27 28 14 15 37 39 39 38 35 36 38 41 41 41 40 40 37 38 36 37 35 39 46 46 43 36 32 34 33 28
4 5 10 10 10 10 10 11 23 8 13 34 36 27 28 16 21 37 40 43 39 37 38 42 43 41 44 40 39 38 40 35 35 37 39 40 42 49 43 37 32 29 31 29
3 3 3 5 8 12 2 21 13 23 36 36 26 26 29 35 36 37 37 37 39 44 50 49 44 43 47 40 38 38 38 39 40 37 37 41 46 46 42 36 31 28 25 30
4 7 3 5 6 21 33 30 33 36 24 28 31 36 34 35 37 38 39 42 46 47 49 46 43 43 50 39 36 36 41 40 40 37 38 41 45 47 40 36 31 25 30 34
7 10 7 10 8 17 29 38 29 32 30 32 36 36 36 38 43 48 47 47 48 48 47 43 43 44 43 38 35 36 38 37 40 42 40 42 44 43 33 30 26 28 33 36
13 14 9 13 21 31 24 26 24 31 35 35 35 36 42 45 47 45 46 46 47 47 46 43 42 41 46 40 39 37 37 38 41 39 42 41 41 35 26 19 21 27 34 31
18 10 7 10 19 17 22 26 28 31 33 40 42 43 40 40 46 46 47 44 48 48 47 44 45 45 43 45 38 42 41 37 34 38 39 38 35 27 24 16 16 17 28 29

GFSCGP_850_spd_027.txt.gz
Wind_Speed
4 4 4 3 1 3 4 3 7 7 7 6 7 10 18 21 26 28 29 30 29 29 29 33 32 31 31 29 27 29 27 22 18 8 13 25 33 37 38 39 39 39 39 37
4 3 4 1 3 4 6 6 8 7 7 7 8 14 13 22 21 24 23 26 30 30 32 34 35 34 34 34 35 32 30 29 26 22 14 14 20 34 42 42 43 41 40 38
3 3 4 2 5 6 4 3 4 5 7 5 3 7 5 8 20 24 26 27 29 29 31 34 36 37 37 37 35 36 34 32 29 30 27 17 14 14 25 41 39 41 43 42
5 2 4 5 3 5 4 3 5 7 6 2 6 4 5 6 8 13 25 29 27 28 29 31 34 36 36 35 30 29 33 34 33 32 32 29 27 28 24 22 40 45 47 46
6 2 2 2 1 3 7 5 7 8 4 2 4 2 3 8 8 9 18 26 26 22 25 27 29 30 29 29 31 27 27 30 30 29 27 27 29 33 29 28 27 40 49 49
8 7 3 2 3 4 6 6 12 4 4 2 6 7 1 3 3 7 13 22 22 26 19 22 24 27 30 27 28 29 30 28 27 26 25 25 27 32 37 34 30 32 43 50
7 3 4 7 5 8 11 6 4 5 2 5 5 4 4 5 9 11 13 16 18 22 13 20 22 28 27 26 35 30 31 28 26 32 32 30 32 31 34 36 35 31 38 48
4 4 3 6 3 2 4 2 3 4 3 4 13 4 6 9 15 15 16 18 16 20 12 16 19 22 21 27 33 30 27 25 28 29 32 34 32 34 36 39 38 35 34 42
6 4 4 5 2 2 4 3 4 1 4 1 4 4 2 6 5 14 17 23 18 19 14 18 21 23 25 30 35 27 20 26 28 35 34 34 32 35 37 43 42 40 33 35
3 5 4 2 2 4 3 3 4 3 3 5 6 4 4 6 7 11 19 25 25 10 17 19 23 29 34 34 38 26 27 35 35 32 33 33 32 36 41 38 39 39 31 34
4 2 7 6 3 1 4 3 2 2 4 5 4 6 6 3 12 22 37 42 38 22 21 23 25 26 29 28 18 25 31 32 29 32 27 31 35 37 38 36 36 35 33 32
4 2 4 7 4 4 3 2 2 4 6 3 3 9 8 14 29 34 30 29 22 15 16 21 25 27 25 18 26 31 32 32 28 31 35 37 38 34 36 37 37 40 38 35
3 2 4 5 5 6 4 4 3 2 2 6 3 9 11 32 31 34 33 23 16 15 22 27 26 25 25 27 29 31 30 31 34 36 35 37 39 33 34 38 41 38 39 40
3 2 6 6 4 2 7 5 6 3 2 10 15 22 22 21 23 29 22 18 21 22 24 26 28 33 31 29 30 30 30 36 38 40 36 40 38 34 37 37 39 36 39 38
5 3 4 10 9 10 15 17 14 13 13 10 25 22 20 15 8 11 21 25 26 28 34 32 36 29 30 34 34 34 37 41 39 40 41 39 38 40 37 39 36 34 32 38
2 3 3 9 9 12 15 14 18 17 16 16 18 18 8 20 21 19 25 25 28 33 35 33 31 33 36 31 32 41 40 40 40 38 40 40 39 36 43 34 30 29 39 40
1 0 3 5 5 10 8 5 2 3 3 6 12 15 4 8 17 21 27 28 30 29 26 36 36 38 37 34 39 37 40 39 36 45 37 37 41 41 37 29 33 38 38 38
4 2 1 4 5 3 5 9 5 7 7 8 9 8 11 18 31 32 32 32 31 29 36 37 42 37 35 40 39 39 39 39 40 38 38 43 36 36 34 40 41 44 39 41
16 5 2 1 2 9 10 4 2 3 9 7 6 11 28 37 34 30 32 32 29 36 36 37 38 41 37 40 43 40 41 39 40 38 42 36 36 41 40 41 45 45 36 36
9 5 5 2 1 5 6 5 11 6 14 5 17 23 21 19 13 18 38 39 43 36 37 38 39 41 43 46 43 40 40 41 39 41 35 41 41 37 41 42 42 43 37 36
4 2 12 9 5 8 11 14 6 3 8 30 28 20 22 13 24 41 40 39 39 41 43 44 45 46 47 45 44 41 39 41 40 37 40 38 38 37 40 41 40 45 39 34
7 5 4 2 3 10 1 7 2 12 28 26 22 23 29 35 40 40 42 42 44 46 46 45 46 47 44 42 40 35 42 39 35 36 37 35 36 43 42 40 43 43 32 31
4 7 4 9 7 8 15 19 25 25 18 22 30 33 33 38 42 44 43 44 46 46 47 46 46 46 45 38 39 40 34 35 40 39 36 37 44 38 42 35 42 37 30 29
5 10 5 3 4 10 23 36 24 20 27 34 34 36 36 37 38 44 46 46 46 46 46 45 46 46 43 40 39 36 41 36 37 40 39 44 37 36 34 36 39 32 33 29
7 2 5 7 19 24 23 13 21 27 32 33 29 29 34 37 40 41 44 46 48 49 49 47 45 44 44 42 41 36 33 36 36 37 37 32 31 35 32 36 34 26 23 22
15 7 5 7 12 10 17 13 20 26 26 32 35 37 37 35 37 41 45 47 47 49 51 53 50 48 46 42 38 36 33 30 34 38 32 32 35 31 33 34 29 19 17 19

GFSCGP_850_spd_030.txt.gz
Wind_Speed
0 4 3 6 5 4 2 2 5 5 3 5 3 6 10 18 26 24 26 26 27 29 27 28 29 29 29 28 28 29 26 24 21 21 16 9 7 9 20 35 36 37 38 35
4 3 4 5 1 1 2 3 5 5 5 3 4 6 6 12 12 20 23 24 23 24 27 28 30 31 32 32 31 30 29 26 23 23 23 21 18 10 10 14 29 36 39 40
4 3 4 2 4 4 3 3 2 5 6 2 1 3 5 6 18 19 17 18 19 20 23 26 29 31 31 33 32 30 27 26 27 27 24 21 18 13 14 11 11 22 33 40
3 2 4 2 1 2 4 1 2 5 5 3 5 4 5 5 6 10 15 14 14 15 18 22 25 28 27 29 30 28 27 24 23 25 25 23 21 22 22 22 22 18 19 29
5 1 2 1 1 1 6 3 5 4 5 2 3 2 3 5 5 5 9 12 16 10 13 16 20 24 23 28 32 29 29 23 21 24 27 26 24 25 26 27 28 27 23 22
5 4 3 1 2 3 5 4 4 4 3 0 5 5 4 1 3 2 7 10 12 12 8 12 16 20 24 28 32 34 25 21 19 23 25 29 33 33 32 31 33 34 33 31
7 3 1 5 4 5 10 6 4 3 3 6 3 1 1 6 4 3 8 18 16 16 7 11 14 18 23 27 30 32 32 26 24 26 28 32 31 29 29 30 33 37 39 35
3 3 5 6 2 1 3 3 4 4 3 5 8 4 4 7 9 7 9 18 21 20 5 8 10 14 18 23 20 24 24 23 25 31 35 35 28 26 26 29 32 36 39 34
3 4 4 4 2 2 3 3 2 0 2 1 3 2 6 5 3 3 15 20 16 22 6 6 11 15 20 21 19 18 18 21 25 31 35 35 30 28 31 31 32 36 35 32
1 4 2 4 3 6 3 1 3 3 3 5 5 4 5 7 4 5 14 17 18 17 4 9 15 20 25 27 27 25 25 26 28 32 30 34 35 38 40 39 35 32 35 36
3 3 5 3 4 2 5 3 4 2 4 4 4 6 6 7 3 10 18 25 28 20 10 15 21 24 25 23 19 21 27 32 35 28 28 32 36 37 36 37 34 30 34 38
1 3 4 4 6 6 2 2 4 4 5 2 3 8 8 5 19 25 24 22 19 15 16 21 25 25 28 28 28 25 29 30 26 24 31 37 34 30 35 35 31 31 35 36
2 1 3 2 5 4 3 2 4 2 3 6 3 7 5 23 32 29 15 23 22 23 24 28 34 30 33 32 25 25 32 27 31 35 35 33 36 34 34 33 33 33 34 37
4 2 5 6 3 1 5 3 2 4 2 5 15 26 27 18 18 20 19 21 26 28 31 32 36 34 31 27 28 32 29 29 33 33 34 36 37 37 37 33 31 36 38 33
3 3 3 6 8 6 12 11 11 11 11 8 17 13 20 19 10 16 21 29 30 29 32 35 33 34 39 42 39 37 34 33 34 35 35 38 36 37 33 28 38 35 29 28
1 2 2 6 6 8 12 11 12 12 14 15 22 27 15 20 16 22 25 29 36 40 38 38 39 42 43 39 40 36 33 38 39 41 41 37 41 36 37 38 32 28 30 35
4 2 2 5 5 8 9 7 8 5 6 6 9 15 8 10 12 22 35 35 36 36 35 38 40 44 43 41 40 40 38 39 44 42 45 38 40 34 36 31 31 37 39 41
5 4 3 4 5 2 4 1 4 10 8 10 12 10 11 20 35 31 34 35 34 34 42 43 43 44 41 41 40 38 40 43 42 42 42 39 38 39 31 36 40 35 37 42
8 4 2 1 3 8 8 5 5 3 11 10 10 8 25 27 29 28 28 30 39 42 41 40 43 42 45 46 42 45 41 43 41 41 41 38 38 38 35 39 39 34 40 46
6 3 3 2 2 6 5 4 3 2 9 7 9 14 15 19 12 18 40 43 42 43 42 43 46 47 45 46 45 44 47 43 41 41 36 38 38 34 34 39 33 38 45 44
3 2 11 5 4 9 11 15 9 2 7 11 13 16 19 11 21 38 39 45 45 45 48 48 46 45 45 45 43 44 44 42 46 38 38 37 33 34 36 34 39 46 44 39
8 6 4 3 3 10 9 5 7 4 12 12 20 23 26 32 37 38 42 42 42 44 47 48 47 48 47 44 42 42 42 41 37 40 36 35 40 38 39 42 49 40 36 37
4 7 5 10 8 7 14 6 10 14 12 18 25 29 29 32 38 38 41 44 43 44 46 45 47 51 52 48 44 42 41 37 38 36 41 40 36 41 43 43 31 33 33 35
5 11 5 2 6 18 24 24 27 14 17 22 23 27 33 32 34 37 38 40 44 46 47 49 50 52 53 52 51 48 45 40 37 38 34 35 40 40 37 29 30 32 32 36
6 6 5 9 17 22 19 7 13 16 18 21 26 28 30 30 32 33 37 42 46 48 51 51 51 52 53 52 47 43 39 33 32 32 35 32 33 35 30 31 29 28 32 28
15 7 6 8 13 15 13 15 11 14 17 22 27 33 28 26 30 36 38 43 43 49 55 53 53 52 52 48 42 35 29 25 26 29 26 27 27 27 31 32 28 30 28 21

GFSCGP_850_spd_036.txt.gz
Wind_Speed
4 5 2 4 3 2 2 1 3 4 1 6 3 5 2 5 9 10 11 12 14 15 14 15 17 20 22 24 26 28 28 29 29 27 23 17 13 11 9 9 9 9 15 23
5 1 2 2 2 2 1 2 4 3 3 5 4 3 2 2 1 4 6 7 8 8 10 13 15 19 22 23 26 27 29 30 31 32 31 27 22 17 14 13 12 11 10 12
3 1 1 1 2 3 2 3 2 3 4 5 6 2 5 3 3 2 1 1 2 4 7 9 12 16 17 21 24 26 29 31 33 31 29 27 24 23 22 20 18 17 16 15
1 4 1 2 1 3 3 2 1 2 1 3 4 5 5 5 4 3 3 4 5 6 6 7 9 11 14 17 20 22 23 23 24 25 25 24 24 26 26 23 21 20 19 18
1 3 4 2 0 2 6 2 2 1 4 2 2 2 5 6 4 3 3 7 6 8 10 13 11 12 14 18 20 22 23 23 25 26 26 26 24 26 28 26 20 17 19 19
2 3 1 1 1 1 4 2 5 4 3 1 2 4 4 6 7 4 0 7 5 8 12 15 14 14 14 16 18 21 21 22 24 23 24 25 28 30 30 26 22 20 23 24
5 2 5 4 2 4 8 6 4 5 4 5 1 0 7 7 8 8 3 3 9 10 16 14 12 14 16 18 21 24 24 27 25 24 28 31 30 28 30 29 26 26 27 27
2 3 4 7 2 1 4 4 4 4 3 5 4 6 5 7 16 10 3 5 9 10 11 12 10 14 17 21 24 27 29 29 28 29 33 33 31 31 32 31 29 30 29 25
3 4 4 3 2 2 1 4 3 2 1 1 3 6 3 3 6 8 3 8 8 7 12 13 13 17 21 28 32 38 37 37 36 36 36 36 35 35 32 33 35 36 31 26
3 2 1 4 1 7 3 4 2 3 3 5 5 6 5 10 11 7 5 8 12 11 13 16 18 25 31 36 40 36 38 35 37 38 37 38 38 38 39 39 40 34 32 28
2 2 2 1 3 2 3 1 4 3 4 4 3 6 5 14 14 8 8 9 16 17 17 23 29 37 41 40 40 41 42 41 39 40 42 41 46 45 42 42 36 31 32 30
2 3 3 3 1 2 1 2 4 4 4 1 3 8 4 7 18 11 6 19 25 15 23 31 39 40 39 40 42 44 46 46 46 49 48 48 45 46 41 37 36 31 31 30
3 1 3 4 4 3 2 3 4 5 3 6 5 6 3 2 6 11 16 23 21 24 32 38 37 39 41 41 43 45 46 45 49 43 43 49 45 42 37 34 32 32 32 33
3 2 5 6 3 1 4 4 4 5 3 4 9 13 12 7 8 17 25 25 26 34 37 36 37 39 38 41 43 42 43 43 39 42 49 44 48 45 39 37 38 34 32 34
3 2 2 4 6 4 6 10 8 10 6 7 18 7 20 7 7 20 22 24 31 30 31 33 35 37 41 42 43 42 41 42 43 44 42 42 45 45 44 39 40 42 39 34
2 2 2 5 2 1 6 14 14 17 15 14 21 25 21 22 11 14 19 27 30 34 37 37 41 42 41 42 44 44 44 45 44 45 45 44 42 44 44 39 42 40 36 33
5 4 2 5 4 7 7 8 12 5 6 7 8 10 2 1 7 15 22 29 32 35 37 41 42 42 42 43 43 45 46 46 44 43 44 43 42 42 41 42 39 40 38 32
6 5 3 3 4 1 5 2 4 10 6 13 11 9 6 9 15 20 28 24 27 35 40 40 40 43 46 46 46 45 45 43 43 45 44 43 42 41 40 39 38 38 37 32
4 4 1 2 3 8 5 1 5 7 7 12 16 10 8 16 21 14 15 19 35 35 37 38 39 40 45 46 46 45 46 46 44 45 45 45 42 40 38 38 36 37 30 32
5 3 4 2 3 7 4 4 6 4 8 6 9 4 6 9 6 8 21 34 36 36 36 38 37 39 42 46 45 45 48 46 47 45 49 42 44 42 37 38 35 32 29 31
3 2 8 3 4 9 10 7 4 4 8 11 7 9 7 5 14 27 32 36 35 36 39 39 40 38 42 43 46 48 49 48 50 44 45 44 38 33 36 32 32 30 27 29
7 7 4 3 3 9 14 8 7 6 10 8 9 11 13 16 23 28 31 32 34 37 40 40 38 41 43 44 48 46 48 50 48 45 41 38 35 31 30 27 27 28 29 28
3 7 5 11 9 6 20 15 14 6 6 9 9 11 14 19 25 26 30 31 32 33 35 37 40 44 42 46 47 47 50 50 50 44 39 35 31 28 26 24 22 24 27 29
5 8 4 1 8 27 28 30 31 26 19 14 11 12 15 20 24 26 29 32 32 31 34 37 40 41 43 48 47 44 49 48 44 44 39 32 28 25 24 22 20 22 25 27
6 10 5 7 21 27 28 24 25 22 17 13 12 13 17 20 24 25 27 29 28 31 31 35 39 41 44 47 47 47 49 46 46 45 35 29 25 25 25 22 21 22 22 25
13 8 5 8 23 19 21 15 8 9 13 14 13 15 18 20 21 22 25 26 26 29 32 36 39 39 44 45 45 48 49 45 43 39 32 25 25 26 24 25 26 21 22 23

GFSCGP_850_spd_042.txt.gz
Wind_Speed
1 5 4 1 1 1 2 3 5 2 1 4 2 5 10 13 12 12 10 9 8 5 3 2 3 4 6 8 10 12 14 16 16 16 18 18 18 17 16 16 19 20 20 20
4 4 2 5 4 4 3 5 6 1 0 4 4 10 10 15 14 14 13 11 8 5 3 2 2 3 4 6 8 10 13 15 16 16 18 18 18 18 19 17 18 18 19 20
4 4 6 4 5 5 4 7 4 3 1 2 7 9 12 15 13 14 13 11 9 8 6 5 6 6 6 7 9 10 12 15 16 15 17 20 20 20 20 19 20 19 21 20
1 2 6 5 5 4 6 2 1 3 4 5 2 5 8 13 15 17 17 14 11 9 8 7 9 10 11 10 11 11 13 17 17 18 21 24 25 26 24 24 23 23 21 20
4 3 5 6 1 2 3 1 3 4 6 6 6 5 4 9 14 16 19 15 12 10 8 7 8 10 10 11 13 16 15 20 21 24 25 25 26 27 28 27 28 26 25 23
2 1 1 2 2 1 3 3 1 1 3 5 5 4 4 6 8 13 18 15 12 10 8 6 6 7 8 9 13 15 21 23 26 27 27 27 29 30 32 31 32 32 29 27
3 3 2 1 4 4 4 5 3 4 4 3 4 5 9 3 6 11 19 16 13 9 5 4 6 8 10 11 15 19 24 28 28 29 29 29 30 30 32 32 33 34 33 31
5 5 2 3 2 2 0 3 4 5 4 4 3 6 0 1 5 11 16 14 10 7 5 6 8 10 12 15 19 25 27 30 30 29 29 29 30 31 32 31 32 33 32 32
3 3 2 4 2 3 4 4 3 3 1 4 3 5 7 4 9 14 16 14 10 6 5 9 10 12 15 19 24 27 29 31 30 30 31 31 31 31 32 32 33 35 35 35
2 3 1 3 1 4 4 3 3 3 4 5 4 6 8 9 13 13 16 18 13 7 6 10 12 15 19 23 27 27 29 31 31 31 31 32 32 32 32 33 34 32 32 33
0 2 4 2 6 4 3 3 2 3 4 4 7 4 3 1 5 12 17 18 16 12 10 11 14 19 23 25 27 29 30 31 32 32 32 32 33 33 33 34 34 32 35 36
1 2 4 1 3 2 3 3 5 4 4 3 4 9 3 2 3 6 11 14 17 15 12 14 18 22 25 27 29 30 31 31 30 32 33 34 34 34 35 35 35 35 35 34
2 2 3 4 3 2 6 5 5 2 1 10 8 7 3 3 1 4 8 13 16 15 16 18 20 23 26 29 30 30 29 31 31 31 32 33 33 33 35 35 34 34 34 34
1 3 6 7 3 1 4 7 10 10 5 10 14 22 18 9 7 11 12 13 14 18 16 18 21 24 27 29 29 29 29 29 30 30 32 33 34 34 35 35 35 35 34 34
2 5 4 10 9 8 11 14 11 17 21 11 22 19 20 17 18 20 12 9 10 14 16 19 22 26 28 29 29 29 29 29 29 32 33 35 36 36 37 37 35 35 34 34
2 2 2 5 1 4 11 17 18 22 23 23 26 26 21 14 3 6 5 9 13 15 18 21 25 27 28 29 30 29 29 30 31 33 34 37 40 40 40 40 38 37 36 34
3 2 2 5 2 7 11 18 15 11 13 12 14 11 6 6 10 12 12 12 13 15 18 23 25 26 27 28 28 29 30 33 33 37 37 40 37 38 43 45 39 37 36 34
3 3 2 5 8 7 4 6 6 10 13 11 17 17 16 15 13 14 13 12 12 16 22 24 24 25 26 26 27 28 34 34 37 40 39 40 40 45 47 46 46 38 42 31
2 4 3 4 4 15 13 4 0 2 8 9 14 14 14 10 8 16 6 5 12 18 21 22 23 24 26 26 27 33 35 36 36 40 38 44 43 49 48 46 50 40 29 31
3 3 4 2 4 5 5 4 3 2 9 4 5 11 14 5 11 10 2 12 17 19 20 23 23 24 25 27 28 31 33 39 37 37 45 45 47 43 46 46 37 35 30 30
4 5 9 9 6 9 9 5 4 4 9 5 7 13 8 9 12 14 13 15 17 19 21 22 21 23 24 27 28 33 34 37 39 43 46 46 43 43 43 36 32 28 28 24
7 6 5 4 6 9 11 10 5 12 10 9 10 11 12 13 14 14 14 15 17 18 20 19 21 22 26 25 30 31 38 38 41 44 45 42 40 42 39 31 28 24 23 23
6 8 3 10 6 4 13 18 17 15 19 21 17 16 13 13 13 12 15 16 17 18 18 19 21 24 25 25 29 33 35 43 43 44 45 41 41 39 37 34 31 24 22 22
6 8 5 6 8 19 23 21 24 22 24 23 19 16 13 12 10 11 12 14 15 16 19 20 22 24 26 26 29 32 39 38 44 45 42 44 43 39 36 35 30 26 24 23
4 5 11 21 20 24 23 16 20 23 20 20 18 15 13 12 11 11 11 13 14 16 17 20 22 24 26 27 32 31 38 39 41 42 44 43 42 40 37 34 34 26 22 21
15 15 11 16 26 27 31 31 28 27 22 20 17 13 13 13 11 12 11 12 13 15 18 20 22 23 26 28 31 34 38 41 40 43 44 43 40 39 39 36 31 24 19 19

GFSCGP_850_spd_048.txt.gz
Wind_Speed
5 2 6 5 4 5 7 8 8 8 6 2 7 11 8 20 16 14 15 15 15 15 14 8 6 4 2 1 2 4 8 12 14 18 19 19 21 20 23 24 21 20 21 24
3 6 4 3 4 4 7 9 9 2 7 2 7 12 9 19 17 19 18 16 16 15 12 11 9 6 4 5 5 7 9 13 16 18 17 19 19 22 27 25 22 20 24 26
7 4 3 2 1 5 7 7 7 7 2 8 7 11 14 10 18 17 17 17 16 16 12 14 11 9 7 6 8 13 16 12 13 15 19 22 26 28 30 28 28 30 27 25
5 5 2 2 6 7 7 8 6 6 5 3 3 5 4 11 9 11 17 18 18 15 14 10 8 6 8 9 10 14 12 14 14 17 21 26 27 30 30 32 32 32 28 29
1 1 2 4 2 6 4 4 4 5 7 8 8 3 4 11 7 10 17 20 18 15 14 14 12 10 9 11 13 15 16 13 17 21 25 27 28 30 34 33 33 35 33 31
7 3 2 5 3 3 3 5 8 4 4 4 10 7 4 6 11 9 18 22 21 18 16 14 10 9 10 9 12 13 15 17 19 23 26 27 30 31 33 33 33 34 32 31
8 8 5 2 3 4 4 4 2 3 3 3 6 4 4 7 6 3 16 23 21 18 16 13 11 10 11 12 14 15 16 20 22 28 28 28 29 31 32 33 33 33 34 33
4 4 5 4 2 4 6 2 3 4 2 2 4 5 4 7 9 3 6 19 19 16 14 14 13 13 14 15 14 17 19 23 27 26 29 28 29 30 32 33 34 37 37 36
6 4 4 4 4 2 3 3 3 4 8 4 5 3 4 4 5 5 7 14 15 14 14 13 13 13 14 16 17 19 22 25 26 28 28 31 32 33 35 34 34 34 34 34
2 2 1 4 2 4 3 5 2 2 3 4 4 6 3 4 5 4 6 8 11 12 12 12 12 13 15 16 19 23 22 26 29 31 32 33 34 34 35 35 36 37 38 38
3 3 3 1 6 2 3 3 4 1 2 3 3 2 2 7 3 9 10 13 16 16 18 18 16 15 15 19 21 22 25 29 31 32 32 34 35 36 36 33 33 35 37 38
4 3 4 3 4 5 3 4 3 2 4 3 2 6 8 8 9 9 11 9 7 1 6 16 16 14 17 19 22 24 28 30 30 32 35 35 35 33 32 35 35 32 32 32
5 3 4 2 2 2 3 4 4 5 2 5 1 5 6 9 5 4 3 4 7 10 11 12 12 14 17 20 23 27 28 29 31 32 34 33 32 33 34 35 36 38 40 46
3 3 4 3 3 2 4 3 4 4 2 4 6 14 9 10 6 11 10 8 9 5 7 10 13 16 17 21 26 27 29 31 32 33 30 30 34 37 34 36 42 45 41 41
2 3 5 8 9 8 8 10 10 12 12 7 12 12 14 6 6 9 8 8 6 10 11 11 12 16 21 24 26 28 30 33 30 30 31 38 33 36 44 38 39 41 39 44
3 2 4 4 6 3 7 13 12 12 12 13 14 14 6 5 12 12 11 14 16 14 12 11 13 19 22 23 27 29 31 29 29 30 32 32 37 41 41 41 39 42 43 45
4 2 3 4 2 8 8 4 2 3 4 4 6 7 5 6 9 13 16 20 18 12 8 11 17 19 22 25 28 29 29 27 31 31 35 40 37 40 42 42 42 44 46 46
2 2 2 3 6 3 2 4 4 1 4 7 7 6 6 7 13 16 22 19 8 8 11 16 18 21 25 27 27 26 27 34 31 32 39 37 38 42 44 45 44 46 45 46
3 3 2 1 3 8 9 4 5 5 4 7 8 9 13 18 21 15 9 8 7 10 14 16 20 23 26 24 25 26 32 31 33 34 39 39 39 48 46 47 45 44 46 46
0 4 2 2 2 4 5 4 1 1 2 15 18 16 18 17 6 5 22 15 11 14 17 20 21 24 23 24 24 29 30 30 32 39 40 40 47 46 45 47 48 43 42 45
3 3 5 5 4 5 4 8 1 2 4 16 16 14 16 7 13 26 26 21 18 18 18 19 22 23 23 25 27 27 29 31 36 38 41 45 43 44 45 47 46 46 46 46
6 5 4 3 3 5 7 3 1 8 21 16 14 16 22 24 28 27 25 19 17 16 18 19 21 23 24 24 26 28 32 34 36 41 45 44 45 44 46 46 46 46 45 42
2 5 1 2 4 5 5 9 13 13 17 19 23 25 26 28 26 24 21 18 15 15 17 19 21 22 23 23 25 31 31 33 37 42 44 44 46 45 42 43 43 44 40 38
5 10 3 3 2 11 18 18 24 23 24 26 26 27 27 28 26 20 19 14 14 16 17 19 20 22 24 26 28 31 30 34 38 45 42 44 45 42 42 38 37 38 36 37
4 11 3 7 12 12 12 21 27 31 31 29 28 27 27 25 22 16 14 14 14 15 18 18 20 21 25 27 30 28 30 34 39 40 42 45 43 42 40 36 33 30 31 34
8 5 4 4 13 11 16 22 23 25 26 25 27 30 25 20 20 15 13 13 13 16 19 16 19 24 26 27 28 28 32 35 36 40 43 44 41 40 36 32 29 20 22 22

GFSCGP_850_spd_051.txt.gz
Wind_Speed
1 4 3 5 6 5 2 1 4 2 3 5 8 8 10 25 24 20 22 25 25 23 18 16 12 8 5 4 6 9 9 12 14 18 19 19 23 27 27 26 25 21 21 22
4 2 3 3 3 3 3 3 6 3 2 1 6 13 11 20 24 31 26 22 26 22 25 18 11 10 10 10 8 10 13 15 14 18 18 21 25 29 29 28 27 26 27 26
5 1 3 1 1 2 3 1 3 2 2 4 3 8 5 3 12 25 21 20 21 24 26 16 12 11 10 8 7 12 15 17 16 16 17 22 26 30 30 31 32 31 29 28
1 3 2 1 2 1 2 1 2 4 5 3 3 5 6 4 6 11 20 18 19 22 21 13 15 16 12 8 9 13 17 18 17 18 20 24 28 31 32 33 33 34 32 31
5 3 2 2 1 2 3 1 1 1 1 4 3 1 7 7 4 8 16 20 18 17 22 16 15 13 14 14 16 18 18 19 21 19 22 25 30 31 31 32 33 33 34 32
4 2 2 2 2 3 3 2 3 2 2 2 6 7 5 4 7 5 15 24 23 19 19 17 18 18 16 16 18 18 19 20 18 20 24 29 30 31 33 34 35 37 38 37
3 2 2 2 1 2 3 5 3 2 2 5 3 5 7 2 3 5 17 29 27 23 19 18 19 16 14 16 17 18 21 20 19 23 29 29 30 31 32 36 38 40 40 39
4 2 2 1 1 2 4 6 4 4 3 4 5 5 3 2 10 11 15 26 24 23 21 20 17 16 15 16 19 22 18 19 23 28 27 29 31 35 38 40 40 40 40 39
3 2 1 4 2 2 1 2 4 1 2 1 4 1 3 4 4 8 10 17 18 20 19 17 17 16 17 18 18 17 18 23 26 25 29 34 37 38 39 39 40 40 39 36
1 0 2 1 1 1 2 2 2 2 2 4 5 1 2 4 4 4 8 12 12 13 15 16 18 19 18 17 15 17 21 22 25 29 34 37 37 37 39 40 41 36 36 38
2 3 2 2 4 5 1 2 2 2 5 4 1 5 5 1 1 4 3 8 14 19 20 20 20 20 18 14 17 18 20 25 30 35 38 38 39 41 41 35 34 35 35 36
0 3 3 5 1 1 1 3 4 4 4 1 4 5 2 8 10 10 5 4 1 12 13 16 21 17 14 14 15 21 26 30 35 38 38 40 41 39 38 38 40 40 39 42
2 1 2 4 4 2 1 3 3 4 3 4 4 5 3 6 5 2 3 3 5 6 7 6 8 13 13 17 22 27 31 36 38 39 40 39 38 38 41 39 37 42 45 39
1 1 5 5 3 3 2 3 1 4 3 3 6 4 7 5 3 4 3 3 5 7 10 14 13 15 18 21 24 30 32 33 35 37 35 34 36 39 37 42 46 41 40 40
3 2 2 4 6 4 5 7 7 7 6 4 4 7 7 5 2 1 2 5 6 10 11 11 13 16 18 21 30 30 32 34 34 34 35 38 41 40 43 38 37 40 40 40
1 2 3 4 4 3 5 9 8 6 6 8 7 8 2 4 7 11 11 14 19 25 13 11 12 16 21 29 29 31 32 30 32 34 39 37 39 42 41 40 40 45 43 44
4 2 3 4 6 6 6 3 2 4 3 2 2 5 5 6 10 13 19 23 22 14 5 11 16 21 26 27 29 30 28 30 33 36 36 37 41 42 39 39 45 45 43 44
2 3 2 3 5 2 3 4 6 3 7 7 6 7 8 9 15 19 17 12 16 16 17 20 23 26 28 29 28 27 29 33 34 35 38 39 42 42 41 43 44 44 44 43
2 3 1 2 2 7 1 4 3 3 2 3 3 7 13 20 16 17 12 24 25 13 17 21 22 25 27 27 25 27 31 31 33 35 39 42 42 41 45 46 46 47 47 47
4 5 4 2 3 5 3 2 1 3 3 1 6 7 9 15 8 4 19 27 25 20 19 19 22 26 27 26 26 27 29 30 35 40 39 40 40 43 45 46 47 48 47 48
1 2 4 2 3 7 5 3 0 3 5 11 8 8 12 4 12 26 29 28 24 17 16 19 24 25 24 25 26 27 31 35 38 37 38 42 42 43 44 46 46 47 44 45
6 6 4 2 1 6 6 2 1 3 9 16 18 19 20 21 26 29 28 25 15 15 17 22 24 24 24 25 26 30 33 35 33 37 41 43 43 42 43 44 45 40 38 36
1 6 4 8 6 5 2 10 7 10 12 16 20 22 22 25 28 26 28 17 13 14 17 21 22 23 23 24 27 30 30 32 37 38 41 41 43 43 42 41 37 36 32 32
4 2 2 3 3 4 9 7 15 19 19 21 21 22 24 26 25 25 20 15 14 17 20 21 22 22 23 26 26 26 29 32 36 38 41 41 43 41 39 36 33 30 29 30
6 2 3 4 3 3 5 13 15 16 21 27 27 27 26 26 25 23 16 13 15 18 19 20 19 21 24 25 25 27 28 32 34 36 38 41 41 40 38 32 29 27 26 27
11 7 4 5 6 5 2 8 13 18 19 22 24 27 28 22 23 18 13 13 16 17 17 18 19 21 22 23 25 27 31 31 32 36 37 39 38 37 33 30 28 24 23 20

GFSCGP_850_spd_057.txt.gz
Wind_Speed
3 4 6 10 5 3 4 3 4 3 2 5 7 10 11 15 24 23 26 28 28 27 22 20 18 15 14 13 11 8 6 6 8 9 10 12 15 18 20 22 23 25 25 24
5 4 4 3 4 4 3 2 4 4 1 5 3 11 10 8 13 30 33 32 33 28 26 23 21 19 17 15 13 11 8 9 10 12 13 15 18 20 23 25 25 27 28 28
5 1 5 3 2 3 2 4 3 4 4 2 5 8 5 1 4 12 28 33 33 31 30 27 25 22 18 16 15 12 11 12 12 14 15 17 19 21 24 28 29 30 33 34
2 1 3 2 1 4 2 2 2 1 3 3 3 5 6 4 8 3 14 24 30 32 31 29 26 23 20 17 15 14 14 14 13 15 16 20 22 25 28 30 31 33 35 37
3 3 2 2 2 1 3 3 3 2 3 3 2 2 8 5 6 5 7 17 25 31 32 31 28 23 20 18 17 16 17 15 14 15 20 22 23 24 27 29 31 34 37 38
2 1 2 1 3 3 3 4 7 4 3 1 4 4 5 3 4 7 2 15 20 24 29 30 27 23 22 20 20 19 18 15 14 18 22 22 22 25 28 30 34 38 41 41
4 2 2 2 3 4 5 5 3 3 2 5 1 3 7 5 3 4 9 16 19 18 20 25 27 26 24 22 21 20 17 15 16 20 20 21 24 26 29 33 38 41 41 42
4 4 2 3 2 4 2 5 5 4 2 4 1 5 3 2 6 9 6 6 15 15 16 18 22 23 22 21 19 17 16 16 19 20 21 23 25 29 33 36 39 40 40 40
3 3 2 4 2 2 2 2 3 4 2 1 3 6 4 5 7 13 13 5 8 11 13 16 20 20 19 17 16 15 17 19 19 20 21 24 27 32 36 39 39 40 39 40
3 1 2 1 1 4 2 4 2 3 2 4 4 4 3 6 5 8 10 8 2 7 12 14 15 13 14 14 15 17 18 17 18 19 23 27 33 37 38 39 39 39 42 43
2 3 2 2 2 4 2 1 5 3 4 3 2 5 4 2 3 1 4 7 8 8 9 9 8 9 11 14 17 19 17 16 18 23 28 33 35 36 36 37 39 41 42 42
1 4 2 5 1 2 2 4 5 4 3 1 4 6 2 3 6 6 4 6 8 11 12 10 9 10 12 16 18 16 15 18 24 29 34 36 36 37 38 40 39 40 42 43
4 1 2 5 4 2 3 3 4 5 3 5 4 5 1 6 8 9 8 9 11 10 10 14 17 18 17 15 15 16 19 25 31 36 37 37 36 38 39 39 40 42 43 43
2 2 4 5 3 2 3 3 4 5 3 3 6 5 4 6 4 7 10 10 11 12 14 15 15 17 17 16 18 20 24 30 34 35 34 35 37 38 39 42 44 43 43 39
3 2 2 3 4 2 3 5 4 5 4 5 5 6 4 3 4 6 9 10 10 11 13 14 14 15 17 19 20 23 28 31 32 33 34 36 38 40 43 44 43 43 38 36
2 1 1 2 2 4 4 5 6 5 4 7 5 5 1 3 2 8 9 6 5 11 15 17 20 21 22 20 21 25 29 30 31 32 33 36 39 41 41 42 41 37 35 40
2 3 2 4 5 6 6 3 2 2 3 3 5 3 2 2 6 11 9 6 8 14 21 21 21 23 20 19 22 27 29 30 30 32 34 37 37 40 41 40 36 35 39 38
4 3 2 2 4 1 4 1 3 4 1 4 4 3 2 5 10 13 7 11 14 24 26 24 23 19 17 20 24 28 28 29 31 33 35 35 37 40 40 37 35 37 38 39
4 4 2 2 2 6 1 4 5 4 5 5 3 1 4 8 9 6 11 18 23 27 25 24 19 17 18 21 25 26 28 30 32 34 35 36 38 40 37 35 35 36 37 38
5 6 4 2 3 5 4 2 4 6 4 4 2 1 6 10 5 4 19 23 26 23 25 20 16 16 19 23 25 27 29 31 32 33 35 36 38 36 34 34 36 36 35 34
1 2 4 2 2 8 6 4 5 3 5 3 2 5 7 2 8 22 24 24 22 22 20 16 16 17 21 23 25 27 29 29 31 32 36 37 37 31 32 34 34 33 30 29
6 6 3 3 1 7 5 6 5 4 4 1 3 7 10 13 18 20 24 24 24 20 15 14 15 18 20 22 24 26 27 28 30 34 35 38 33 30 33 34 31 29 28 31
2 5 4 8 5 5 4 8 9 5 4 2 7 10 12 14 17 21 24 23 23 16 13 14 18 20 20 21 23 25 26 27 32 33 35 35 30 33 33 33 30 29 29 28
4 7 3 2 3 6 12 9 6 3 5 6 7 9 12 14 17 21 22 21 17 13 13 16 19 20 22 23 22 23 24 29 31 32 34 32 32 31 33 30 28 28 27 29
5 7 4 4 3 6 5 7 4 4 4 6 8 12 15 17 19 21 21 18 15 14 16 18 18 21 23 22 22 22 25 29 30 31 32 32 30 32 33 29 27 25 23 25
7 6 5 5 7 4 7 8 4 2 4 7 11 14 15 18 20 20 18 15 16 17 16 17 20 22 21 22 22 22 26 28 28 31 31 31 30 31 31 29 30 24 20 19

GFSCGP_850_spd_060.txt.gz
Wind_Speed
3 4 6 10 3 3 5 3 3 2 2 3 6 9 12 14 20 23 25 29 28 27 22 21 19 16 15 13 11 9 6 4 3 4 7 8 10 13 15 19 22 23 24 26
5 5 3 4 5 3 3 3 3 3 1 3 4 11 11 5 10 25 31 32 33 27 26 25 22 20 17 12 11 10 9 7 6 7 9 11 13 16 18 20 24 25 27 29
5 1 6 4 4 4 2 3 2 4 4 1 6 7 5 2 2 5 17 27 31 32 30 27 24 21 18 16 14 11 10 10 9 10 12 12 15 17 18 21 24 25 28 31
2 2 3 3 3 4 1 1 2 2 3 3 4 5 6 4 8 4 7 15 24 29 29 27 25 23 20 17 14 13 13 13 12 13 14 14 17 19 21 23 25 27 30 34
2 2 2 3 1 1 2 4 3 3 3 3 3 2 7 5 6 8 10 7 15 24 28 28 27 23 21 19 17 15 16 16 14 15 15 17 19 20 23 24 26 29 32 37
2 2 3 2 3 4 6 4 6 4 3 1 2 3 5 4 5 7 9 7 8 16 23 26 25 25 24 21 20 19 19 17 15 17 18 19 20 22 24 26 29 32 38 39
4 2 2 2 4 3 5 5 3 4 3 5 1 2 6 5 4 5 12 11 6 8 12 19 23 25 24 23 21 20 20 16 17 19 20 21 21 23 25 28 33 38 40 40
4 3 2 4 2 5 2 5 5 4 2 4 1 5 2 3 8 9 8 5 4 4 5 9 14 20 21 21 21 19 17 18 20 22 22 21 21 24 28 33 37 38 40 40
4 1 1 4 2 2 2 2 2 5 3 1 3 5 4 7 7 13 18 15 8 3 3 6 8 10 11 13 13 14 17 20 22 22 20 20 23 29 34 36 37 39 40 41
3 2 2 1 3 5 2 5 3 3 2 3 4 4 3 5 5 7 13 17 14 10 8 8 7 6 8 9 11 15 18 21 19 18 19 24 30 34 35 37 39 39 40 40
3 3 2 1 2 6 2 0 5 4 3 4 2 5 5 2 4 6 11 15 18 19 16 14 11 8 6 8 11 15 16 16 16 19 24 30 32 34 36 38 39 39 41 42
1 4 3 3 1 1 2 4 5 4 4 1 4 5 1 3 5 6 9 12 13 14 14 14 14 14 13 11 12 13 14 16 19 24 29 32 35 36 38 39 39 41 43 43
3 1 2 5 4 2 2 3 4 5 3 5 4 5 1 3 8 9 9 10 10 11 13 15 16 17 16 16 17 17 18 20 24 29 33 35 35 37 38 40 42 42 43 44
2 2 4 5 2 1 1 3 4 4 3 4 6 4 2 6 4 6 7 8 9 12 15 16 16 16 17 18 19 20 20 23 27 32 33 34 34 36 39 40 41 42 43 42
3 2 2 3 3 1 3 4 5 6 4 5 4 7 1 2 4 3 5 7 9 13 15 17 20 21 20 21 21 21 22 25 29 31 31 33 35 38 39 40 41 42 39 35
4 1 2 2 3 3 4 7 6 4 3 7 4 6 4 4 1 4 6 6 7 9 14 21 21 21 21 22 21 20 22 26 29 30 32 34 36 38 38 40 41 40 36 35
2 3 2 4 4 6 6 4 5 4 4 4 4 4 5 2 3 8 10 8 12 15 20 27 24 23 22 20 18 20 24 27 28 30 32 34 36 38 39 40 40 38 35 34
4 4 2 2 3 1 4 2 1 4 3 2 3 3 2 2 5 13 8 7 14 21 25 25 25 25 19 16 17 22 25 27 29 31 32 34 36 39 40 41 37 36 31 32
4 4 3 3 2 6 2 1 4 3 3 6 5 3 2 4 9 6 1 16 22 25 26 25 24 19 14 16 21 24 26 28 30 32 33 35 36 39 40 36 33 32 33 34
5 6 4 2 4 4 5 2 4 4 4 8 7 3 2 5 4 4 16 22 24 25 25 24 19 15 15 19 23 25 27 29 30 32 33 35 36 38 37 31 33 36 32 32
2 3 5 3 3 8 6 5 4 3 6 10 5 0 3 2 7 17 19 22 23 22 24 18 15 14 18 23 25 26 28 29 30 31 34 35 36 36 30 33 34 34 30 31
6 6 4 3 2 7 8 4 6 4 9 7 2 1 5 9 13 16 20 23 23 23 20 14 14 16 20 22 25 27 28 28 29 32 34 35 35 32 30 32 34 29 29 29
2 6 4 8 6 3 12 4 5 7 8 4 1 2 6 10 13 17 20 22 20 19 15 14 17 21 20 22 24 27 27 27 30 33 34 35 33 29 28 28 30 30 29 28
4 5 3 2 1 6 8 8 7 6 4 3 0 3 6 10 13 17 19 20 19 16 15 16 19 19 21 22 23 24 25 26 31 33 33 34 30 29 30 30 30 29 28 27
4 8 5 5 3 4 8 9 9 6 4 2 1 4 7 10 14 17 20 21 18 16 16 18 18 20 22 23 23 22 22 27 31 32 34 31 28 30 31 30 29 26 24 23
8 6 5 5 5 4 6 16 10 6 3 1 4 7 9 13 16 19 21 21 19 17 17 17 18 19 22 23 22 21 22 27 30 31 30 29 30 29 31 31 32 25 22 21

GFSCGP_850_spd_063.txt.gz
Wind_Speed
2 3 5 6 4 3 4 3 3 1 1 1 3 7 13 10 15 17 22 26 28 29 24 23 22 19 17 16 14 11 10 7 5 3 1 3 5 8 9 11 14 17 20 22
3 4 3 5 4 3 3 3 3 1 2 2 3 12 10 2 7 16 23 25 30 28 26 27 25 22 19 15 14 13 12 9 7 5 4 6 7 9 10 12 15 18 20 23
4 2 6 4 4 5 2 3 3 3 1 2 5 6 3 2 3 5 9 17 25 31 30 28 27 24 20 18 15 12 12 11 9 8 8 10 11 12 13 14 17 19 21 24
3 2 4 4 3 4 3 1 3 3 2 2 3 4 3 4 4 7 11 6 13 26 30 27 26 24 20 17 15 14 13 13 12 12 12 14 15 16 16 18 20 21 24 26
2 2 3 3 2 1 3 3 3 2 3 1 2 1 4 4 5 9 11 11 4 14 26 28 25 21 19 17 15 14 15 16 15 16 17 18 19 19 19 20 21 23 26 30
2 2 3 2 3 3 7 4 5 3 2 0 1 2 2 3 5 9 13 12 3 7 16 22 22 21 20 18 18 18 18 18 18 19 20 20 22 22 21 21 23 27 31 34
4 3 3 3 4 3 3 4 2 2 1 3 1 1 3 5 5 6 12 10 8 6 5 11 18 20 21 20 20 20 20 20 21 21 22 22 22 20 20 23 28 32 35 37
5 2 2 4 2 4 2 4 4 3 2 2 1 4 1 3 7 11 12 13 11 9 6 2 5 12 17 19 20 20 20 20 20 21 22 21 18 19 22 27 31 34 36 38
4 1 1 4 1 1 3 2 2 5 2 1 2 3 2 3 7 13 16 18 15 12 9 7 4 2 1 4 8 11 13 15 18 19 18 17 18 22 27 30 33 35 36 37
4 3 1 1 2 6 1 5 2 2 2 3 2 3 3 1 5 7 13 17 16 14 13 11 10 8 6 4 5 8 12 15 16 15 15 18 22 26 30 32 34 35 37 38
3 2 1 1 1 5 2 1 5 3 1 2 2 3 3 2 1 3 6 11 16 16 15 13 11 9 8 8 9 10 13 13 13 15 18 22 25 29 32 34 35 36 39 39
0 3 2 1 1 1 2 3 3 3 3 1 0 4 1 3 2 5 8 10 11 12 12 11 11 12 12 12 12 12 12 14 15 18 21 25 30 33 34 35 36 37 38 39
3 2 2 2 2 2 1 2 3 4 2 5 3 2 4 3 5 6 8 7 8 8 9 11 12 14 16 16 16 15 16 16 18 21 24 29 32 32 33 35 36 36 38 39
3 3 3 3 2 2 2 3 3 3 2 4 5 2 4 1 4 4 4 4 4 7 10 13 16 18 18 18 18 19 19 19 20 23 28 30 31 32 34 35 36 36 37 39
3 2 2 2 2 2 3 4 6 7 4 6 2 6 3 4 6 3 1 1 4 9 13 17 22 23 21 20 20 20 19 19 22 26 29 30 31 33 34 35 36 37 38 36
1 3 3 2 0 0 4 6 5 5 4 7 3 7 4 7 7 3 1 5 8 11 14 19 24 24 22 24 21 18 17 20 25 28 29 30 32 33 35 36 37 38 36 33
2 4 2 2 3 4 6 4 5 3 2 4 4 4 6 4 5 3 6 6 8 14 19 22 24 24 24 23 17 15 18 23 26 28 30 30 31 34 35 37 39 36 32 32
4 3 2 1 2 0 3 2 1 4 4 5 2 4 8 4 2 7 5 4 14 20 22 24 25 25 21 16 14 17 22 25 27 29 30 29 32 35 37 38 36 32 31 31
4 4 2 2 2 5 2 3 4 5 5 7 6 6 5 2 4 3 4 11 19 21 23 23 25 20 15 13 16 21 24 25 27 28 28 30 33 36 37 37 33 30 33 33
4 5 3 2 3 5 2 3 4 3 4 9 10 8 5 1 2 3 9 17 19 21 21 23 20 14 13 15 20 24 24 26 28 28 29 32 34 35 36 33 30 32 32 31
2 3 3 2 3 7 5 5 5 3 4 10 10 8 6 3 5 10 14 16 18 20 21 19 14 13 15 19 23 24 26 27 28 27 30 33 34 36 32 28 30 30 31 29
6 6 3 2 1 6 9 5 6 2 9 11 9 6 4 5 8 11 14 17 19 20 18 16 14 14 18 21 23 25 27 27 27 28 32 34 35 33 28 30 30 29 30 29
2 5 4 8 5 3 16 3 5 10 12 10 7 5 3 4 7 11 16 18 20 19 17 16 17 18 19 21 23 26 27 27 27 30 33 34 34 27 28 30 30 30 29 28
3 6 2 1 3 10 11 11 9 9 8 7 5 3 1 5 8 12 16 19 21 20 18 17 19 19 20 21 23 25 26 26 27 31 33 35 26 27 31 28 29 29 27 26
3 8 5 5 6 3 8 14 12 11 8 7 4 1 3 7 10 14 17 19 21 22 20 18 20 20 22 22 24 24 24 24 27 30 31 30 26 31 29 28 28 25 22 22
10 6 5 5 7 4 3 15 16 13 10 6 3 1 4 7 10 13 17 20 23 24 22 21 21 22 21 21 23 23 22 23 27 30 30 29 29 27 27 29 29 22 20 20

GFSCGP_850_spd_066.txt.gz
Wind_Speed
8 9 15 17 14 7 4 5 6 1 2 3 7 12 11 7 11 14 17 19 21 22 19 20 19 18 17 16 15 15 14 13 10 8 6 5 4 4 4 5 7 10 12 14
6 13 11 6 7 6 4 5 8 2 1 3 6 14 12 4 4 7 13 18 20 19 20 22 22 21 20 18 17 16 15 14 11 10 8 6 6 6 7 9 11 12 14 16
10 1 7 8 8 8 6 7 7 5 2 2 7 11 2 2 3 5 5 9 16 21 22 23 24 23 21 19 19 16 15 15 14 12 12 10 10 11 12 12 13 15 16 18
4 4 9 7 9 9 9 2 3 3 1 6 3 6 3 2 1 5 9 5 8 16 22 22 23 23 22 20 17 17 16 16 16 16 14 15 12 11 11 15 17 17 18 20
5 8 9 9 3 2 4 4 4 2 3 4 4 5 3 0 0 9 12 9 2 8 18 21 21 18 17 17 19 18 19 19 18 18 18 19 19 16 18 19 19 18 18 22
5 3 2 3 7 4 13 6 4 2 2 5 3 4 4 2 7 10 12 10 7 4 10 15 13 13 15 18 19 20 20 20 20 21 22 22 22 19 17 14 16 17 22 27
5 4 3 3 7 6 3 4 3 5 4 2 2 4 4 4 8 8 7 9 10 9 7 9 11 14 16 18 19 21 21 21 21 22 22 22 22 21 20 20 21 24 27 28
7 6 2 3 2 1 5 4 5 5 4 2 3 5 4 5 7 8 8 9 11 11 9 7 5 8 11 14 17 19 19 19 20 20 21 20 20 20 20 22 25 27 27 28
4 4 3 5 2 2 5 6 3 0 0 4 2 3 5 7 7 9 10 11 12 11 9 8 6 4 1 3 7 11 14 16 17 16 17 17 17 18 21 24 27 29 29 29
3 5 1 3 2 7 2 5 3 3 3 4 4 4 2 10 7 6 9 11 11 11 11 11 10 9 6 4 2 4 7 11 13 13 14 14 16 19 23 26 28 29 29 28
1 2 4 3 4 4 4 4 1 2 3 4 4 3 4 8 5 6 7 8 9 9 10 9 8 8 8 8 9 10 11 11 12 13 14 16 19 22 24 25 25 25 27 29
2 2 3 2 3 1 1 1 5 4 4 1 3 2 3 6 5 5 7 6 6 7 7 7 8 9 9 11 14 14 14 13 14 16 18 19 22 24 24 23 24 26 27 28
3 2 4 5 4 3 4 4 2 2 0 7 4 2 5 6 5 5 6 6 5 4 4 5 8 11 12 12 12 13 15 16 18 19 19 21 23 24 25 27 29 29 28 29
1 2 3 1 4 2 4 7 8 8 5 4 9 5 7 8 6 8 7 6 3 1 3 6 9 12 14 14 14 13 13 15 18 19 20 23 25 28 29 30 30 29 28 28
2 3 2 0 1 3 4 6 10 13 12 7 5 4 2 7 8 9 7 5 3 4 7 10 14 16 17 16 16 15 15 14 15 19 22 24 28 29 28 28 29 28 28 28
1 2 2 3 2 3 7 10 11 11 9 11 12 15 7 6 10 9 7 3 5 6 10 14 16 17 17 17 16 14 11 12 18 20 23 26 28 27 28 28 29 28 28 26
3 4 3 1 0 5 9 9 12 5 6 7 7 2 8 7 8 6 3 4 4 8 13 15 17 17 18 16 14 9 12 17 21 23 22 24 25 26 27 26 26 27 27 26
5 3 0 1 2 4 4 3 3 8 5 11 5 1 4 4 6 6 5 2 6 11 14 16 16 17 15 13 11 13 17 20 21 21 21 21 23 25 26 26 27 27 26 26
4 2 2 2 3 6 4 4 4 4 2 10 6 6 9 7 4 7 5 1 8 11 14 15 16 15 12 11 13 17 19 18 21 20 20 21 23 25 26 27 27 25 26 26
4 3 3 3 2 4 4 4 3 2 5 5 10 12 12 8 5 4 1 8 10 12 13 16 17 14 12 12 17 21 18 18 19 20 22 23 24 25 26 26 25 25 26 28
4 2 6 4 3 6 4 8 5 3 2 9 9 10 9 5 2 2 7 8 10 14 16 16 15 14 14 16 20 19 17 18 20 24 25 23 24 25 24 23 26 29 27 28
5 6 4 3 4 6 10 6 5 3 4 8 8 7 7 2 1 3 6 9 13 14 16 16 16 13 14 17 19 17 17 19 23 25 24 23 24 25 21 24 27 26 26 27
4 3 2 7 4 2 16 1 4 4 6 8 8 6 4 2 1 5 8 10 13 15 17 16 16 17 16 14 19 20 20 24 26 24 22 24 25 22 23 25 26 26 27 26
6 6 3 2 4 11 9 11 9 7 6 8 7 6 4 2 2 5 7 9 12 14 17 18 18 16 16 15 20 20 22 25 25 21 23 24 23 24 24 23 23 25 26 25
1 10 5 6 8 3 10 14 11 10 10 10 9 6 4 1 2 6 8 10 13 17 19 20 19 17 19 19 20 21 24 25 23 22 22 22 22 24 26 22 24 24 21 21
9 6 5 4 3 2 3 7 13 14 13 10 7 4 3 3 5 8 12 14 17 19 20 22 22 20 20 20 20 21 23 24 23 21 21 22 22 27 23 25 27 21 18 18

GFSCGP_850_spd_069.txt.gz
Wind_Speed
16 12 15 19 16 16 6 10 13 3 3 4 12 13 11 10 11 11 13 16 17 18 17 18 17 17 16 14 13 12 12 12 11 9 8 6 6 6 6 6 6 7 7 9
9 14 16 14 17 13 10 11 11 5 3 2 14 20 15 6 5 5 9 14 17 17 18 20 19 18 17 15 13 13 12 13 11 9 8 6 6 8 8 11 11 11 11 12
14 7 3 7 9 12 12 12 9 7 4 6 14 15 16 7 5 1 3 7 11 16 19 20 20 19 17 15 14 13 13 13 12 10 10 11 10 14 14 14 12 11 14 16
15 7 6 9 14 12 14 6 4 6 4 7 5 8 8 8 5 2 6 7 4 9 16 18 19 19 18 16 14 14 13 13 13 13 13 13 11 11 10 10 11 12 14 16
6 8 10 10 3 10 4 6 5 5 8 6 12 5 1 5 5 5 9 9 6 3 12 17 18 17 15 14 14 14 14 14 15 14 16 15 14 14 13 13 13 13 12 13
10 7 3 3 4 5 9 8 6 4 6 8 11 7 3 3 6 5 7 10 8 4 8 13 12 13 13 13 14 15 14 15 15 16 15 17 18 16 15 15 14 14 14 15
10 6 5 9 9 5 7 7 5 6 5 5 3 4 5 6 5 5 7 10 10 9 9 11 11 10 10 12 13 15 15 15 14 15 16 15 16 16 15 14 14 14 16 16
10 7 8 3 3 4 10 7 7 6 6 1 5 6 5 7 7 8 9 10 11 12 10 8 6 5 6 8 9 10 11 12 12 14 14 13 13 13 11 12 13 15 17 19
8 6 5 4 1 4 6 6 4 6 7 8 8 7 7 7 7 9 10 11 11 11 11 11 9 7 6 4 1 3 6 8 9 9 9 9 10 11 12 14 14 16 18 21
3 5 1 3 2 3 4 2 3 4 4 7 6 4 3 11 9 9 10 11 11 11 11 10 9 9 7 6 4 3 3 3 7 9 8 9 10 12 13 15 17 19 22 22
3 2 5 4 7 4 5 5 4 4 3 5 6 4 7 10 10 8 9 9 9 9 8 8 7 6 6 5 5 5 5 5 6 7 8 10 11 13 15 17 19 20 22 24
3 4 5 4 3 2 4 4 6 5 5 4 3 2 1 8 7 8 9 8 7 7 6 5 4 4 5 7 8 9 9 8 9 10 12 12 14 15 17 19 21 22 24 24
1 4 5 5 4 3 5 8 7 3 2 9 6 2 5 7 8 8 9 8 7 5 3 2 4 7 9 10 11 12 12 12 12 12 12 13 15 17 18 21 22 23 24 25
4 2 5 4 5 3 5 8 9 10 6 8 9 5 9 8 8 9 8 7 7 4 1 3 7 9 12 13 13 14 15 13 13 12 13 15 17 19 21 21 22 24 24 26
3 3 2 2 2 2 4 5 9 12 13 10 8 5 5 4 7 8 8 8 6 5 3 5 9 12 14 15 15 15 13 11 10 12 14 17 19 20 21 22 23 24 25 26
1 1 1 3 1 4 7 9 10 11 13 13 12 14 8 5 3 6 7 8 7 5 5 9 11 13 14 15 14 13 10 10 12 15 18 19 20 21 22 23 24 25 26 26
3 2 2 1 0 5 10 11 13 9 7 8 9 4 5 4 6 8 6 6 5 3 7 10 12 13 14 14 11 10 11 12 15 17 18 19 20 22 23 24 25 26 27 27
2 2 0 2 3 4 4 5 4 7 4 8 3 2 2 2 5 5 5 5 2 5 8 10 12 13 13 11 9 10 12 14 16 17 19 20 21 23 24 25 26 26 26 25
3 2 2 3 5 7 7 3 3 4 1 7 8 4 6 5 4 10 5 3 2 5 8 10 12 12 11 10 11 12 14 15 16 18 19 21 22 24 24 26 27 26 25 28
1 3 4 2 2 3 4 5 3 2 4 3 8 9 9 7 5 7 5 2 4 6 9 11 12 12 12 12 13 14 15 16 17 19 20 21 22 23 25 26 26 24 27 30
4 3 8 6 5 5 9 9 6 4 3 7 5 6 8 6 2 5 1 3 5 8 11 12 12 13 13 14 14 16 16 17 18 19 20 21 22 24 24 24 23 28 29 28
6 6 4 5 5 5 12 7 4 4 3 4 4 5 6 4 3 2 2 5 8 10 12 13 14 14 14 15 16 16 17 18 18 19 20 21 22 23 23 23 26 27 27 29
4 4 1 6 2 2 15 4 4 3 3 4 6 6 6 5 3 1 3 5 8 10 12 13 14 15 15 15 16 18 18 17 18 19 20 22 22 22 22 23 26 26 27 27
4 2 3 2 3 9 7 13 6 5 4 5 6 8 7 6 4 2 4 6 8 10 13 14 15 16 17 16 17 17 17 17 17 19 21 21 22 22 22 25 23 26 28 27
3 8 5 8 13 6 12 13 12 8 7 9 9 9 7 4 2 4 6 9 11 13 14 16 17 18 19 18 18 16 16 16 18 19 20 21 20 22 25 25 23 26 26 22
10 7 5 5 5 7 2 5 11 12 11 11 10 8 6 4 3 5 8 11 13 16 18 18 18 18 19 18 16 15 15 16 18 19 19 20 21 23 26 27 29 27 23 21

GFSCGP_850_spd_072.txt.gz
Wind_Speed
19 10 13 16 17 16 14 5 5 5 5 5 8 3 10 16 18 11 10 12 12 18 18 18 18 17 15 15 14 12 15 15 13 12 12 8 7 6 8 9 9 9 10 11
8 14 15 17 16 17 13 8 10 10 6 4 4 6 12 16 0 5 6 7 10 12 18 21 18 17 17 16 15 14 13 14 14 11 8 3 6 6 9 11 14 13 14 14
12 12 18 15 13 13 10 6 4 8 6 3 3 5 9 3 9 3 1 3 8 12 17 24 21 20 17 17 16 14 14 15 14 11 10 14 14 12 16 15 17 16 15 15
13 6 11 5 8 5 8 10 2 7 5 5 7 4 4 11 8 6 12 9 8 5 5 23 23 21 19 16 15 14 13 12 14 13 15 16 14 13 10 10 9 8 13 19
4 6 2 7 5 8 2 5 5 6 7 6 8 2 2 9 8 8 11 7 5 3 5 16 20 19 16 16 14 15 13 13 12 14 16 16 16 16 16 17 19 20 21 16
2 6 4 1 6 6 9 5 4 1 2 4 12 8 0 3 5 7 12 7 5 2 4 10 15 14 14 14 15 14 16 15 15 16 18 19 19 19 20 17 17 16 15 16
6 5 2 9 5 3 6 7 3 3 3 3 5 5 5 7 7 7 10 10 9 8 9 14 14 14 13 12 15 18 18 18 17 17 17 18 19 20 23 21 20 20 21 23
6 5 6 4 1 4 7 3 2 3 3 4 2 4 4 8 11 12 13 12 12 12 9 9 6 5 7 10 10 8 8 11 11 12 14 15 18 22 24 18 19 21 23 23
5 4 4 5 3 4 5 3 2 3 5 2 5 5 4 8 8 14 15 13 14 14 12 12 11 9 8 9 10 9 9 10 13 14 17 16 13 12 14 14 20 22 22 24
5 5 1 2 2 1 4 3 1 2 2 4 6 6 6 9 8 9 11 13 14 14 13 12 11 9 6 4 3 1 1 4 7 9 11 13 16 17 17 17 17 19 24 25
6 2 3 3 5 3 3 2 3 1 2 1 4 3 5 9 9 9 14 15 13 12 12 11 9 7 6 5 6 6 6 9 8 10 13 14 13 14 17 20 20 20 22 25
2 4 3 3 3 4 4 3 7 2 2 2 2 1 5 9 10 17 16 12 11 10 9 7 6 5 4 4 5 8 10 11 12 14 17 15 13 16 17 18 20 24 27 27
6 3 4 3 1 1 3 3 3 4 3 3 1 2 4 8 7 10 15 13 11 9 7 5 2 3 5 6 7 9 10 12 14 18 19 18 16 17 19 21 26 26 28 29
3 3 3 2 4 2 4 4 5 4 2 3 2 6 6 7 7 9 10 12 12 9 6 2 0 3 7 8 9 11 13 13 15 17 15 16 17 18 22 27 26 28 30 30
3 3 5 6 4 4 4 5 7 7 6 3 3 4 9 9 10 17 16 11 11 10 7 2 4 7 9 10 12 13 14 16 14 13 15 16 19 24 26 27 29 30 30 29
2 2 2 3 4 1 3 5 6 6 6 6 6 5 7 11 10 8 11 10 7 5 5 2 5 8 10 12 13 14 10 10 11 13 16 20 22 22 25 29 30 30 30 31
3 1 1 2 1 4 6 2 8 5 4 1 5 3 5 4 4 6 6 8 5 4 2 4 7 10 12 13 14 13 11 13 14 16 17 20 21 24 27 29 29 29 31 30
2 2 1 2 3 2 2 4 6 2 3 5 5 5 2 3 3 3 4 4 8 4 1 6 8 11 13 14 12 12 14 15 15 17 19 20 23 28 28 28 29 30 30 30
4 2 2 1 3 2 3 3 1 2 2 6 4 7 5 4 3 3 8 8 4 1 4 6 9 12 12 13 12 14 16 17 16 18 19 23 28 28 28 28 29 31 31 26
4 3 1 2 1 4 2 5 2 3 2 2 4 7 8 10 2 3 8 5 2 2 5 8 12 12 11 13 15 16 17 18 17 19 23 27 27 26 26 28 30 29 25 31
2 1 4 4 3 6 5 8 4 2 5 7 5 6 9 5 4 12 6 3 1 3 6 10 10 12 13 14 15 17 18 17 19 23 26 25 25 24 26 28 27 26 32 33
5 4 3 2 2 6 14 5 4 4 6 6 3 5 9 13 10 8 5 1 2 5 8 10 11 13 15 15 16 17 18 20 21 24 24 25 23 25 26 24 27 34 29 27
2 2 2 6 4 6 18 2 8 7 6 5 7 8 10 10 8 5 2 1 4 6 9 11 14 15 15 16 16 20 21 21 22 24 24 23 25 25 22 26 33 29 24 28
3 4 1 3 3 9 13 14 7 5 4 6 7 10 10 10 8 4 1 2 6 8 12 14 15 17 18 19 19 20 20 20 22 25 23 24 23 22 25 31 26 25 26 30
3 8 6 5 6 7 10 14 13 10 7 10 10 9 10 9 6 3 0 4 8 11 14 15 18 18 19 20 22 19 19 21 24 23 24 22 22 24 30 28 24 25 26 27
10 6 5 4 2 5 5 9 11 13 11 12 12 11 9 7 4 0 3 7 11 14 18 17 17 18 22 21 20 20 19 21 22 23 22 21 24 25 30 26 28 26 26 26

GFSCGP_850_spd_075.txt.gz
Wind_Speed
10 3 7 5 6 6 7 8 10 3 6 5 5 6 8 11 10 13 12 10 6 22 23 23 24 23 20 18 16 16 20 16 15 12 13 12 12 10 10 10 10 10 10 11
2 7 8 10 13 16 13 6 4 4 6 5 7 10 9 8 4 12 13 8 7 2 23 26 27 25 21 18 15 14 15 18 17 13 14 10 8 8 8 10 12 11 15 16
5 7 11 10 15 17 15 8 6 7 3 3 5 6 6 3 9 11 9 8 1 3 23 30 30 27 22 18 15 13 12 16 15 14 13 13 12 14 16 16 15 17 16 17
6 6 13 14 11 10 11 5 8 13 8 5 6 4 5 7 6 6 10 5 2 2 10 31 29 26 23 19 15 14 14 18 18 17 16 18 19 19 17 15 15 17 19 19
4 5 3 5 3 2 4 5 9 7 6 5 3 3 6 7 5 4 7 6 4 1 4 32 29 24 20 19 19 18 15 15 15 15 16 16 18 18 18 17 17 17 17 17
2 5 2 3 1 4 7 7 8 5 4 1 8 7 3 4 6 4 6 5 4 4 4 26 23 20 19 17 17 16 18 14 13 14 17 18 19 19 20 20 21 18 17 18
6 2 3 4 6 5 6 6 3 2 1 5 4 5 5 5 6 8 11 9 9 13 20 22 23 20 18 18 17 17 16 18 16 11 12 15 19 21 22 23 22 23 24 21
3 1 4 2 4 5 4 6 5 6 5 4 3 4 4 5 14 17 15 13 12 15 17 18 17 15 13 12 11 11 12 13 13 13 16 18 17 18 19 21 23 23 23 24
1 1 2 5 3 4 4 2 4 3 1 4 3 3 4 5 7 15 17 16 13 14 14 13 11 10 9 8 7 8 7 8 10 12 15 17 20 20 19 18 17 18 23 25
3 3 2 2 2 2 2 3 3 2 2 3 2 4 4 8 7 7 10 16 16 14 12 11 10 8 7 7 7 7 7 8 10 11 14 16 17 16 17 18 19 19 20 22
2 3 3 3 2 5 1 1 1 3 4 4 1 4 6 10 11 11 14 18 18 16 12 10 7 5 4 3 3 6 9 11 13 14 16 17 17 18 18 19 21 22 22 24
5 2 2 2 0 0 1 3 5 4 4 1 4 5 5 11 14 21 22 21 19 18 16 11 7 8 8 5 2 6 9 12 13 15 15 17 17 17 17 19 21 23 26 30
4 2 2 5 5 4 1 3 3 3 3 1 4 4 3 10 11 21 24 22 19 16 11 11 12 8 4 2 5 7 9 11 12 11 13 15 19 16 17 20 24 28 29 29
2 2 4 5 3 3 3 4 4 5 4 2 4 5 4 6 9 16 22 22 18 15 15 14 10 6 3 7 9 11 14 15 15 16 17 17 16 16 19 24 27 27 29 31
3 1 2 1 2 2 1 4 5 5 5 4 3 5 8 9 10 23 26 24 23 22 17 13 9 6 6 8 11 13 14 15 12 13 14 15 16 21 24 23 26 30 31 31
1 1 2 1 2 0 2 4 5 4 4 4 2 3 1 6 16 15 21 21 23 18 16 11 5 3 7 10 13 15 15 12 14 16 18 20 20 22 23 26 30 31 30 29
3 2 2 1 2 2 5 5 5 4 2 5 3 4 4 4 9 14 16 18 18 19 12 6 2 4 8 12 14 15 14 15 17 18 17 19 20 22 26 31 30 30 28 29
1 2 2 3 3 1 3 1 2 6 4 6 7 6 6 7 9 9 10 17 17 12 7 1 4 8 11 12 13 14 15 17 19 17 17 18 22 26 31 30 28 27 29 30
4 2 2 3 2 5 3 3 1 2 2 4 7 6 10 13 11 9 11 11 10 5 1 4 8 10 10 10 12 13 16 20 20 18 17 20 26 30 29 27 26 28 30 29
2 4 4 2 3 6 4 2 2 4 3 2 10 10 11 11 3 4 9 7 5 2 3 5 9 9 11 10 12 15 18 20 21 20 21 26 28 27 25 25 29 26 28 30
2 2 4 2 2 7 4 5 2 5 6 5 8 13 17 5 7 17 13 7 2 1 5 6 8 10 11 13 14 16 18 19 19 21 26 27 26 25 24 28 25 27 33 37
6 5 4 2 1 6 9 4 6 5 7 9 7 7 10 14 18 15 9 5 2 2 6 8 11 13 14 15 15 18 20 22 23 25 27 27 26 24 24 25 26 31 34 25
1 6 4 7 6 6 21 4 7 9 10 7 7 9 11 15 13 10 9 5 2 4 8 11 14 14 15 17 18 20 21 21 22 24 26 27 24 23 22 26 31 33 26 25
2 5 3 3 4 8 18 9 11 10 9 10 8 10 10 13 12 10 8 3 2 6 9 12 12 16 18 18 17 20 23 21 23 25 26 25 24 21 24 28 31 25 25 26
6 5 4 4 7 4 13 20 18 13 10 9 11 10 11 13 12 9 5 1 3 7 11 14 16 15 17 19 22 20 21 22 24 25 25 25 23 23 26 28 27 22 23 24
8 7 5 6 11 8 4 17 18 16 14 11 12 14 13 11 11 6 2 2 7 11 15 15 14 17 22 20 18 18 21 23 24 23 24 22 23 24 27 30 24 19 21 25